GFSNGP_con_lsi_057.txt.gz
Lid_Strength_Index
9 9 9 9 9 9 10 9 12 10 11 10 8 6 5 4 5 5 5 4 3 3 4 3 4 2 2 2 1 1 2 1 1 1 1 1 1 0 0 0 0 0 0 0
11 9 9 10 9 9 9 9 9 9 9 6 6 5 6 5 5 5 5 4 3 3 4 4 4 3 2 2 2 1 2 2 1 1 1 1 1 1 0 0 0 0 1 1
14 10 10 12 9 9 8 8 8 10 8 6 6 6 5 5 5 5 4 4 3 4 3 4 4 3 3 2 1 1 2 1 1 1 2 2 1 1 1 1 1 1 1 1
14 11 18 10 7 7 8 8 8 8 7 6 5 5 4 4 4 4 4 4 3 3 3 3 3 3 2 2 2 2 2 1 1 1 1 1 2 2 1 1 1 0 1 0
16 16 12 10 9 10 11 11 7 8 6 6 5 5 5 3 3 3 3 3 2 2 2 2 3 2 2 2 2 2 2 2 1 1 1 1 2 1 1 1 1 1 0 1
14 18 19 13 9 7 7 14 8 8 8 8 7 11 7 4 3 3 2 2 2 2 3 3 3 2 2 2 2 2 2 1 1 1 1 2 2 1 1 1 1 1 1 1
15 17 13 10 8 7 16 13 8 7 7 7 9 7 5 4 4 3 3 2 2 2 3 3 3 2 2 2 2 1 1 1 1 1 1 1 1 1 1 1 1 1 1 1
14 16 17 7 7 13 8 7 7 6 6 7 5 5 5 4 4 3 3 3 2 2 4 3 2 3 2 2 1 1 1 1 1 2 1 1 1 1 1 1 2 2 2 2
14 12 7 6 6 6 6 7 7 7 5 5 6 6 5 4 4 3 3 3 2 3 4 3 2 2 2 2 1 1 1 1 1 2 2 1 1 2 2 1 2 2 2 2
10 8 7 5 5 5 6 7 6 5 5 5 6 6 4 4 3 3 3 3 2 3 4 4 3 2 1 1 1 1 1 1 1 2 2 1 1 1 2 2 2 2 2 2
9 7 6 6 5 6 6 6 6 5 5 5 6 5 4 4 3 3 3 2 3 3 4 4 3 2 1 1 1 1 1 1 1 2 2 2 1 1 1 1 2 1 2 2
12 7 7 7 6 5 6 7 6 6 6 4 5 5 4 4 3 3 3 3 4 4 3 3 2 2 1 1 1 1 2 2 2 2 1 2 2 2 12 11 12 11 10 4
7 4 5 5 6 5 7 7 5 5 5 5 4 4 4 4 3 4 3 3 4 4 3 2 2 2 1 1 1 1 2 1 2 2 1 2 2 2 3 4 11 12 12 11
4 4 6 6 8 6 6 6 5 4 4 4 4 3 3 4 4 3 4 4 3 3 2 2 2 2 1 1 1 1 1 6 1 1 1 1 2 2 2 2 3 2 9 8
4 4 6 6 6 6 6 6 6 5 5 4 4 4 4 5 5 4 3 3 3 3 2 2 2 2 1 1 1 1 1 1 1 1 1 2 1 2 2 2 2 2 2 6
4 4 7 8 7 7 7 8 9 8 5 5 5 5 4 4 3 4 4 3 3 4 2 2 2 1 1 1 1 1 1 5 4 1 1 1 1 2 2 2 3 2 2 2
6 6 7 9 8 8 8 10 9 10 7 7 5 5 6 5 5 5 6 5 3 4 2 2 2 1 1 1 1 1 1 1 7 1 1 1 1 2 2 2 2 2 2 2
3 4 6 7 8 8 9 10 10 9 8 8 7 7 8 8 8 6 5 4 4 6 5 4 5 4 1 1 1 1 1 1 1 1 1 1 1 1 1 2 2 2 1 3
4 5 6 7 7 8 10 11 10 11 10 8 9 10 10 8 9 8 9 8 8 9 9 6 10 4 1 2 2 1 1 1 1 1 1 4 1 1 1 1 1 1 1 1
4 4 5 7 7 8 9 10 10 11 11 10 9 11 12 11 8 9 11 13 13 12 10 8 4 2 1 2 6 1 1 1 1 1 1 1 1 1 1 4 1 1 1 1
4 4 5 6 7 8 8 10 11 11 11 11 11 12 11 12 13 10 10 12 13 13 11 11 8 6 4 5 2 1 1 1 1 1 1 1 1 1 1 1 1 1 1 1
4 4 4 5 6 8 9 10 11 11 12 12 12 12 12 12 11 13 13 14 13 16 13 12 11 15 9 10 4 2 2 1 1 1 2 2 2 3 2 2 2 2 2 2
3 4 4 5 6 7 9 9 10 12 12 13 13 13 13 12 12 13 15 13 14 15 13 14 16 15 14 7 7 7 6 5 4 4 5 5 5 6 6 6 5 5 5 6
3 3 3 3 5 6 9 10 10 11 12 12 13 13 13 12 12 11 13 15 16 14 14 15 15 15 14 10 11 11 10 10 10 10 9 11 9 9 9 9 9 9 9 10
2 3 3 3 4 5 6 9 11 11 12 13 13 12 12 12 12 12 11 11 14 13 13 15 15 16 13 13 13 13 12 12 12 12 12 12 12 12 12 12 11 11 11 12
2 3 3 3 3 4 5 7 10 11 11 13 13 12 12 11 11 10 11 12 11 12 13 14 14 14 14 14 14 14 14 14 14 14 13 13 13 13 13 13 13 13 13 13
2 6 3 4 4 5 5 6 8 9 10 10 11 10 11 11 11 11 12 10 10 11 11 13 14 15 14 14 14 14 15 14 15 14 14 14 14 14 14 14 13 13 13 13

GFSNGP_con_lsi_060.txt.gz
Lid_Strength_Index
10 9 9 10 11 10 10 10 12 11 11 10 10 10 9 7 5 5 5 4 3 3 4 4 4 3 3 3 2 2 2 2 2 2 1 1 1 1 1 1 1 1 1 1
12 9 9 11 10 9 9 9 9 9 10 7 8 7 7 6 5 6 5 4 4 3 4 4 4 4 3 3 2 2 2 3 2 2 2 2 1 1 1 1 1 1 1 1
15 10 10 13 11 11 11 10 9 12 10 7 7 7 6 6 5 5 5 4 4 3 3 3 4 3 3 3 2 2 2 2 2 2 2 2 1 2 2 1 1 1 1 1
15 13 18 10 8 8 10 9 8 8 7 7 6 5 5 4 5 4 4 4 3 3 4 3 3 3 3 2 2 2 2 2 2 2 2 2 2 2 2 2 2 2 1 1
16 16 12 11 10 11 12 12 8 8 8 7 6 6 6 4 4 4 4 3 2 3 3 3 3 3 3 3 2 2 2 2 2 2 2 2 2 2 2 2 2 2 1 1
14 18 19 13 9 7 8 15 8 8 9 8 7 11 7 5 4 4 4 3 2 2 3 3 3 3 3 3 2 3 2 2 1 1 2 2 2 2 1 1 2 1 1 1
15 17 13 9 8 7 16 13 8 8 8 8 9 7 5 4 4 4 4 3 2 2 3 3 3 3 3 3 3 2 1 1 1 2 2 2 2 1 1 2 2 2 2 1
15 16 18 7 8 13 9 7 7 7 7 7 6 5 5 4 4 5 4 3 3 3 3 3 2 3 3 3 2 1 1 2 2 2 2 2 2 2 1 2 2 2 2 2
14 13 7 7 7 6 6 7 7 7 6 6 6 6 5 5 5 4 3 3 3 3 3 3 3 3 4 2 1 2 2 2 2 2 2 2 2 2 2 2 3 3 3 3
11 9 8 7 5 5 5 6 6 5 6 5 6 5 5 5 5 4 3 3 3 3 4 4 3 3 3 2 1 2 2 2 2 2 2 2 2 2 2 2 3 3 3 3
10 8 7 6 5 5 5 5 5 6 6 5 5 5 5 5 5 4 3 3 3 3 3 4 3 3 2 1 1 2 2 2 2 2 2 2 3 2 2 4 4 2 2 2
13 7 8 7 5 5 6 7 7 6 7 5 5 5 5 5 4 3 3 4 3 3 3 3 3 3 2 1 1 2 2 3 2 2 2 2 2 3 13 12 12 13 9 3
8 5 5 5 5 5 6 7 7 6 6 5 4 4 5 5 4 3 3 3 3 3 3 3 3 3 2 1 1 2 2 2 3 3 3 3 2 3 3 6 12 13 12 11
5 5 6 6 7 6 7 7 6 6 4 4 4 4 5 5 4 4 4 3 3 3 3 3 3 2 1 1 1 2 2 6 2 2 2 2 3 2 3 3 3 3 10 9
4 4 5 6 6 6 6 7 8 7 5 5 4 4 4 4 4 4 3 3 3 3 3 3 3 2 1 1 2 2 2 2 2 2 2 2 2 2 2 2 3 3 4 8
4 4 5 7 7 7 8 9 9 9 7 5 4 4 4 4 4 4 3 3 4 4 3 3 3 2 1 1 1 2 2 5 5 2 2 2 2 2 2 2 3 3 3 3
6 6 8 8 7 8 9 9 10 9 7 6 5 5 4 4 4 5 5 5 5 4 3 4 2 1 1 1 1 2 2 2 8 2 2 2 2 2 2 2 3 2 2 3
4 5 7 7 8 8 10 11 11 10 9 9 8 8 8 9 9 10 7 6 6 6 6 3 4 2 1 1 1 1 2 2 2 2 2 2 2 2 2 2 2 2 2 5
4 5 7 8 8 9 11 12 11 12 11 10 11 12 11 9 10 11 11 12 11 10 10 7 11 3 2 2 2 1 2 2 2 2 2 5 2 2 2 2 2 2 2 2
5 5 6 8 8 10 11 11 11 12 12 11 11 13 14 14 11 10 12 13 12 13 10 10 5 4 2 2 6 1 1 2 2 2 2 2 2 2 2 5 2 2 2 2
5 5 6 8 8 9 10 11 13 13 12 12 12 12 14 14 14 13 13 14 13 13 11 12 11 12 5 6 2 2 2 2 2 2 2 2 2 2 1 2 2 2 2 2
4 5 5 7 8 9 10 11 12 13 13 13 12 12 13 14 13 14 15 14 14 15 13 12 12 14 12 11 4 4 3 2 2 2 2 2 2 2 2 3 3 3 2 3
4 4 4 6 8 9 9 10 12 13 13 13 13 12 12 13 13 14 15 14 14 15 14 14 15 15 14 7 7 7 7 4 3 4 5 5 6 6 5 5 6 6 7 7
4 4 4 4 6 9 10 10 11 12 13 13 13 12 12 12 12 11 12 14 16 15 16 15 15 15 14 11 10 10 10 10 10 9 9 11 8 9 9 9 9 9 9 9
3 4 4 4 5 8 10 10 10 12 12 13 13 13 11 11 11 12 11 12 15 13 13 15 16 15 14 13 14 13 13 12 12 11 12 12 12 12 13 12 12 12 12 12
3 4 5 5 5 6 7 10 12 11 12 12 12 12 12 11 11 12 12 13 13 14 13 13 13 13 13 14 14 14 14 14 14 13 13 13 13 13 13 13 13 13 13 13
2 6 4 5 5 5 6 8 10 12 11 12 12 11 11 11 11 12 13 12 12 12 12 13 13 13 14 14 14 14 14 14 15 14 14 13 13 13 13 14 14 14 14 14

GFSNGP_con_lsi_063.txt.gz
Lid_Strength_Index
12 11 10 11 11 11 12 12 15 14 13 12 10 9 9 8 7 8 8 7 6 6 5 5 4 4 3 3 3 3 3 2 3 2 2 2 2 2 2 2 2 2 2 2
14 11 11 12 11 11 10 11 11 11 12 9 8 7 8 8 8 8 7 6 6 6 5 5 5 4 3 3 3 2 3 3 2 2 2 3 2 2 2 2 2 2 2 2
17 11 12 15 11 11 11 10 10 14 12 8 9 8 7 7 7 6 6 5 5 5 5 4 4 4 4 3 3 3 3 3 2 2 2 2 2 2 2 2 2 2 2 2
17 14 21 12 8 9 10 10 9 10 10 8 8 7 6 5 6 6 5 5 5 5 4 4 4 3 3 3 3 3 3 3 2 2 2 2 2 2 2 3 2 2 2 2
17 18 14 12 11 12 13 13 9 10 9 8 7 7 7 5 6 6 6 5 4 4 4 4 4 3 3 3 3 3 3 3 2 2 3 3 3 2 2 2 3 3 2 3
15 19 21 14 10 7 9 16 9 8 9 8 8 12 9 6 6 5 5 5 5 4 4 4 3 3 3 3 3 4 3 2 2 2 2 3 2 2 2 2 2 2 2 3
16 17 15 10 9 8 16 14 9 8 8 8 10 8 6 6 5 5 6 6 5 5 5 4 3 3 4 3 3 3 2 2 2 2 2 2 2 2 2 2 3 3 3 3
15 17 19 8 9 13 10 8 7 8 7 8 7 6 6 6 5 6 6 6 5 5 5 4 3 3 4 4 3 2 2 2 2 2 2 2 2 2 2 3 3 3 3 3
14 14 8 7 8 7 6 7 7 7 7 7 6 6 7 7 6 6 6 7 5 6 6 6 3 3 4 3 3 2 3 3 3 2 2 2 2 3 3 3 3 3 3 3
11 9 9 8 6 6 6 6 6 6 6 6 6 6 7 7 6 6 6 6 5 5 6 4 3 3 3 2 2 2 3 3 3 3 3 2 2 3 3 3 3 3 3 3
11 9 8 7 6 6 6 6 6 7 6 7 7 6 7 6 6 5 6 6 4 6 4 4 3 3 2 2 2 3 3 3 3 3 3 6 8 7 4 7 5 3 3 2
13 8 9 8 6 5 6 7 7 8 8 7 7 7 6 6 5 6 6 5 4 5 4 4 3 3 2 2 2 3 3 3 3 3 3 5 5 6 13 13 13 10 7 5
8 6 6 6 5 5 6 6 7 7 7 7 6 5 6 6 6 6 5 4 5 4 3 3 3 3 2 2 2 2 3 3 3 3 3 4 4 5 6 8 12 13 13 10
5 6 7 6 7 6 6 7 8 8 7 6 5 5 6 6 5 5 5 4 5 4 3 3 3 3 2 2 2 2 2 6 3 3 3 3 3 4 4 4 5 7 11 11
5 5 5 6 6 6 7 8 9 9 7 6 4 5 4 5 6 5 4 4 4 3 3 3 3 3 2 2 2 2 3 3 2 2 2 3 2 3 3 3 5 6 6 9
5 5 6 8 7 7 9 10 10 9 8 5 5 5 5 4 4 4 4 3 4 4 4 3 3 2 2 2 2 2 3 6 5 2 3 3 2 3 3 3 4 5 5 6
7 8 8 9 8 10 11 11 10 10 8 7 6 4 4 4 4 4 4 5 6 5 6 6 6 5 2 2 2 3 3 4 8 2 3 3 3 3 3 3 3 3 4 4
5 6 8 8 9 11 11 10 10 11 10 8 7 6 7 7 8 9 10 8 7 8 9 8 8 9 7 2 2 3 3 3 2 2 2 2 3 2 3 3 3 3 4 6
5 6 8 8 9 10 10 12 12 11 10 9 11 11 10 10 11 11 11 11 11 9 11 9 12 8 4 6 4 3 3 2 3 3 2 6 4 2 3 3 3 3 3 4
5 6 8 9 9 10 11 12 12 12 11 10 11 12 13 13 11 11 12 14 13 12 10 10 10 9 6 5 7 3 3 3 3 3 2 3 3 3 2 6 3 3 3 3
5 6 8 9 10 10 11 12 12 13 13 12 12 13 13 14 14 13 13 15 14 13 11 11 10 10 8 7 5 2 3 3 3 4 3 3 3 3 2 3 3 3 3 3
5 6 7 9 10 11 11 12 12 12 13 13 12 13 13 14 14 14 14 15 14 15 13 12 11 13 11 11 7 4 4 3 4 3 3 3 4 4 4 4 5 5 6 7
5 5 6 8 10 11 11 12 12 12 13 13 13 13 14 14 15 16 16 15 14 15 13 14 14 14 14 10 10 10 9 7 7 8 8 7 7 8 8 9 9 9 9 9
5 5 6 6 9 10 12 12 12 12 12 12 12 12 12 13 14 13 14 15 15 15 15 15 15 15 14 12 12 11 12 11 11 10 11 12 10 11 11 11 11 11 12 12
5 5 5 6 8 11 11 11 12 12 12 12 12 11 11 11 13 13 13 14 15 14 14 15 16 15 14 14 13 13 13 13 12 12 12 13 13 13 13 14 14 13 14 14
5 6 7 7 7 8 11 11 12 12 12 12 12 12 11 11 11 11 12 13 13 14 14 14 14 13 14 15 15 15 14 14 14 14 14 13 13 13 14 14 14 15 15 15
4 6 7 8 8 7 9 11 11 12 12 12 12 11 11 11 12 11 12 12 12 12 12 12 13 14 15 15 15 15 15 15 15 14 14 14 14 15 14 15 15 15 15 15

GFSNGP_con_lsi_069.txt.gz
Lid_Strength_Index
13 12 12 13 13 12 14 13 16 14 13 11 10 9 8 7 7 7 7 6 6 6 7 6 6 4 4 4 4 3 3 3 3 3 3 3 3 3 3 3 3 3 3 3
14 11 12 13 12 12 12 12 12 11 13 9 8 8 8 7 7 7 7 6 7 7 7 7 7 4 4 4 4 3 3 3 3 3 3 4 4 4 4 4 4 4 4 3
17 13 13 16 13 12 11 10 11 15 11 10 10 9 8 7 8 7 6 7 8 7 7 7 6 4 4 4 3 3 3 3 3 4 4 4 4 4 5 5 5 5 4 3
16 15 20 12 9 9 11 10 10 10 10 9 9 7 7 6 7 8 7 8 8 7 8 7 3 3 3 3 3 3 3 3 3 3 4 4 4 5 5 5 5 5 4 4
17 17 14 12 11 11 13 12 9 11 9 8 7 7 7 6 7 8 8 8 8 7 7 7 4 3 3 3 4 3 3 3 3 3 4 4 5 4 5 4 5 5 5 5
16 19 21 13 10 8 9 16 9 9 9 9 8 12 9 7 6 7 7 8 8 8 7 7 6 3 3 4 4 4 3 3 2 3 4 4 4 4 4 3 4 4 4 4
16 17 15 10 9 7 16 14 9 9 8 8 10 8 6 6 6 6 7 8 8 8 8 7 6 4 4 4 4 4 2 2 3 3 4 4 4 3 4 4 4 4 5 6
15 17 19 8 9 13 10 9 7 7 7 8 7 7 6 7 7 6 7 7 8 8 8 6 6 4 4 4 3 2 3 3 4 4 3 3 3 3 3 3 3 4 5 6
14 14 9 7 8 7 6 7 7 7 7 6 7 7 7 8 7 7 7 7 7 7 7 6 5 3 4 3 2 3 3 3 3 3 3 3 3 3 3 3 3 3 4 5
13 10 9 8 7 6 6 6 6 6 7 6 7 7 8 8 7 7 7 8 7 7 7 6 5 3 3 3 3 3 3 3 3 3 3 3 3 3 3 4 4 3 4 5
12 10 9 7 6 6 6 5 6 5 6 7 7 7 8 7 7 7 8 8 8 7 7 6 5 3 2 2 2 3 3 3 3 3 3 5 8 6 3 4 4 3 3 3
12 9 9 9 6 5 6 6 7 7 8 8 8 7 6 7 7 7 8 8 8 7 6 5 4 4 3 3 2 3 3 3 3 3 4 6 6 8 14 14 12 11 9 5
9 7 6 6 5 5 7 7 8 9 9 9 8 8 8 8 8 8 8 8 8 6 5 4 5 4 2 2 2 3 3 3 3 4 4 5 5 6 7 10 14 14 12 10
5 6 7 7 8 7 7 7 8 9 9 9 9 9 8 8 8 8 8 7 6 5 5 6 5 3 2 2 2 3 3 8 3 4 5 5 5 6 5 6 6 7 13 12
6 5 8 7 7 7 7 9 9 10 10 9 8 8 7 8 8 7 7 7 6 5 5 5 5 3 2 2 2 3 3 3 3 4 4 6 5 5 5 5 5 7 8 11
6 8 7 8 9 8 9 10 11 11 10 9 8 6 5 6 7 6 6 6 6 6 6 3 3 3 2 2 2 3 2 8 5 4 4 4 5 5 5 5 5 5 4 6
9 9 9 9 9 10 10 11 11 10 9 8 8 5 5 6 6 6 6 5 4 3 3 3 3 3 3 2 2 2 2 4 9 3 3 4 4 5 5 5 5 5 4 6
7 8 8 9 10 12 12 10 10 10 10 8 8 5 5 5 6 5 5 4 5 5 5 6 5 4 4 3 2 2 2 4 3 3 3 3 3 4 4 4 5 5 5 8
7 8 8 9 9 10 11 12 11 10 9 9 9 9 8 8 9 9 9 9 9 8 10 10 9 6 5 9 8 2 2 3 3 3 3 8 4 3 4 4 5 5 4 5
7 8 9 9 9 10 11 12 11 11 10 11 11 11 12 13 11 10 11 14 14 14 12 9 7 7 6 9 11 2 3 3 3 3 4 4 4 4 4 7 4 5 4 4
7 8 10 10 11 10 11 11 11 13 12 12 13 13 12 13 14 14 14 15 14 14 12 12 11 9 8 10 6 4 4 3 3 3 4 4 4 4 4 4 4 4 4 5
7 9 10 10 10 10 11 11 11 12 12 12 13 13 14 13 13 14 15 15 14 15 12 11 11 14 11 12 9 7 6 5 4 3 3 3 4 4 4 3 3 4 7 9
7 8 10 10 11 11 11 11 12 12 13 13 13 13 13 14 14 15 15 14 14 15 13 14 15 15 13 10 11 11 11 9 8 7 4 4 4 5 6 7 7 8 10 11
7 8 10 10 10 11 12 12 11 12 12 12 13 12 13 14 14 13 14 15 16 15 15 16 15 14 13 11 12 12 11 12 12 11 10 11 9 9 10 12 12 12 12 13
7 8 10 11 12 11 11 11 11 12 12 12 12 12 13 13 14 14 14 14 16 15 15 16 16 15 13 13 13 13 13 12 12 13 13 13 13 12 12 13 14 15 14 14
8 8 10 11 11 11 11 11 12 11 12 12 12 12 13 13 13 14 14 14 15 15 15 16 16 16 16 16 15 15 15 15 14 15 15 14 14 14 15 15 14 15 15 15
7 8 9 10 10 11 11 11 11 12 12 12 12 11 11 11 13 14 14 14 15 15 16 15 16 16 15 16 16 16 16 16 16 16 16 16 16 17 16 16 16 16 16 17

GFSNGP_con_lsi_072.txt.gz
Lid_Strength_Index
12 12 12 13 13 12 14 13 16 14 14 11 9 9 8 7 7 7 6 6 5 6 6 6 6 6 7 4 4 4 3 3 3 2 2 2 2 2 2 2 1 2 2 2
15 12 12 13 12 12 12 12 13 13 13 8 8 8 8 7 7 7 6 6 7 6 6 6 6 6 7 4 4 3 3 3 3 3 2 2 2 2 2 2 2 2 3 3
16 12 13 16 13 12 12 11 12 15 11 9 9 9 8 7 7 7 7 7 7 7 7 6 7 7 7 3 3 3 3 3 3 3 3 3 2 2 2 2 3 3 3 3
16 14 20 13 10 10 11 10 10 10 9 8 8 8 7 6 6 7 6 7 7 7 7 7 7 7 6 3 4 3 3 3 3 3 3 3 3 3 3 4 4 4 4 4
17 17 15 12 11 12 13 12 9 10 9 8 7 7 7 5 6 6 7 7 7 7 7 7 7 7 6 3 3 4 4 3 3 3 3 3 3 4 4 5 5 5 4 4
16 19 21 14 10 8 9 15 9 9 9 9 8 12 9 6 5 5 6 7 7 7 7 7 7 7 7 4 4 4 3 3 3 3 4 3 4 5 5 5 5 4 4 3
16 17 15 10 9 8 16 14 9 9 8 8 10 8 6 5 5 6 6 7 6 7 8 7 7 6 5 4 4 3 3 2 2 2 3 4 4 5 5 4 4 4 5 5
15 17 19 8 9 13 10 8 7 7 7 7 7 6 6 6 6 6 7 7 7 8 8 7 7 6 5 4 3 2 3 3 3 3 3 4 4 4 4 4 5 5 5 5
13 14 9 7 8 7 8 8 7 7 6 6 7 6 6 6 6 7 7 8 8 8 9 8 6 6 5 3 2 2 3 3 3 3 3 4 3 3 4 4 4 4 4 5
13 10 10 9 7 6 6 6 6 5 6 6 7 7 7 7 7 7 7 7 7 8 9 8 6 6 4 3 2 3 4 3 3 4 4 3 3 3 3 3 3 4 4 5
12 11 10 8 7 6 7 6 5 6 6 7 7 7 7 7 7 8 8 8 7 8 8 7 6 6 3 2 2 3 3 3 3 3 3 6 9 6 3 3 3 3 3 4
13 9 9 9 7 5 6 6 7 7 8 8 8 9 9 9 8 7 8 8 8 8 8 7 5 5 4 2 2 3 4 3 3 3 4 5 6 7 14 13 11 10 9 5
9 6 6 6 6 6 8 9 8 8 8 10 9 10 9 9 9 8 8 9 8 8 7 6 6 5 3 2 2 3 3 3 4 4 4 4 4 5 7 11 13 13 12 10
5 6 7 7 9 8 8 8 8 9 9 10 10 9 9 9 9 9 9 8 8 7 7 7 7 6 3 2 2 3 3 8 3 3 3 4 4 4 5 4 4 6 12 11
6 5 6 7 7 7 8 9 10 11 10 10 10 9 8 8 9 8 8 7 7 7 7 7 7 5 2 2 3 3 3 3 3 3 4 5 4 5 4 4 4 6 8 11
7 7 8 8 9 9 11 10 11 11 11 10 9 8 7 6 7 7 7 7 7 7 7 7 6 3 2 2 2 3 3 8 6 4 4 4 4 4 4 5 5 4 5 7
9 10 9 10 9 10 13 10 11 11 10 10 9 8 5 6 7 7 6 6 6 6 6 4 3 2 2 2 2 3 3 4 10 3 4 4 4 4 4 4 4 4 5 6
8 8 8 9 10 12 11 10 11 11 10 9 8 7 7 7 7 6 6 5 4 6 7 8 6 4 2 2 2 2 3 3 3 3 3 4 4 4 4 5 5 5 5 8
7 8 9 9 10 12 12 11 10 10 9 9 9 9 9 9 8 8 8 9 10 9 10 10 10 7 5 7 4 2 2 3 3 3 3 8 5 4 4 5 5 4 4 4
7 8 9 10 9 10 11 12 11 10 10 10 10 10 11 11 10 9 10 12 12 13 13 10 7 5 5 7 8 2 2 2 3 3 3 3 3 4 4 7 5 4 4 3
7 9 10 10 10 11 12 13 12 13 12 11 12 13 12 13 14 13 13 14 14 14 13 12 10 8 7 8 5 2 2 2 3 3 3 3 3 3 4 4 4 4 4 6
7 10 10 11 11 11 12 11 11 12 12 12 13 13 13 14 14 14 15 16 15 17 13 12 12 15 11 13 6 4 3 3 3 3 3 3 3 3 4 4 4 5 7 8
8 9 10 11 11 11 11 11 11 12 13 13 13 13 14 15 15 16 16 15 14 16 15 14 15 15 15 9 10 9 7 6 6 3 3 3 3 4 4 6 7 8 9 10
8 10 10 10 10 11 12 11 11 11 12 13 13 13 15 15 15 14 14 15 16 16 16 16 15 15 13 12 11 11 11 10 9 9 9 11 9 10 10 10 11 12 13 13
7 9 10 11 12 12 11 11 12 12 12 12 13 13 14 13 15 15 15 15 16 16 15 17 17 15 13 13 13 14 14 12 12 11 11 11 12 12 13 13 13 14 14 14
6 9 10 11 11 11 11 12 12 12 13 13 13 13 13 13 14 14 15 15 15 17 16 16 16 16 16 14 14 15 15 15 14 14 14 14 15 15 15 14 15 15 15 15
7 8 9 10 11 11 11 11 12 13 13 13 14 13 13 14 14 15 15 15 16 16 16 16 16 16 16 16 16 17 17 17 16 16 16 16 16 17 17 17 17 17 17 17

GFSNGP_con_lsi_075.txt.gz
Lid_Strength_Index
11 10 10 11 11 10 12 12 15 13 12 10 8 7 7 6 5 5 5 4 4 4 4 4 4 3 3 3 3 4 6 5 2 2 1 1 1 1 1 1 1 1 1 1
13 11 11 12 11 11 11 11 11 11 12 7 6 6 6 6 6 6 5 5 4 4 4 4 5 4 3 4 4 5 6 7 2 2 2 2 1 1 1 1 1 1 1 1
15 11 11 14 11 10 10 9 10 13 9 7 7 7 6 6 6 6 5 5 5 4 5 5 4 4 4 4 3 6 6 7 2 2 2 2 2 2 2 2 2 2 1 1
15 13 19 10 8 8 10 9 8 8 8 7 7 6 5 5 5 5 5 4 5 5 5 5 5 6 6 5 5 5 7 6 2 2 2 2 2 2 2 2 2 2 2 1
17 16 12 11 9 10 11 10 7 8 7 7 6 6 6 4 4 4 4 4 4 4 5 5 6 7 7 7 7 8 4 3 3 2 3 3 3 3 2 2 2 2 2 2
15 18 20 12 9 7 8 14 7 7 8 7 7 11 8 4 4 4 3 3 4 4 5 6 7 7 7 6 5 4 4 3 2 2 3 3 3 2 2 2 2 2 3 2
15 16 13 8 8 7 15 12 7 7 7 7 9 7 5 4 4 3 3 3 4 4 6 6 6 6 6 7 5 3 4 2 2 2 2 2 2 2 2 3 4 4 4 2
14 16 17 7 8 12 8 6 6 6 6 7 6 5 5 5 4 4 4 4 4 6 6 6 6 6 7 7 4 3 3 3 2 2 2 2 2 2 3 4 5 3 3 3
12 12 7 6 7 5 5 7 6 6 6 6 6 6 5 5 4 5 5 5 5 6 6 6 5 5 7 6 5 2 3 3 3 2 2 3 3 2 3 3 3 3 3 4
11 9 8 7 6 5 5 6 5 5 5 5 6 5 5 5 6 6 6 6 6 7 7 6 6 6 7 6 3 3 3 3 3 3 3 2 2 2 3 3 3 3 3 3
10 8 8 7 6 5 5 5 5 4 5 7 7 7 6 7 7 8 8 7 7 7 6 6 6 6 6 5 2 3 3 3 3 3 3 5 6 3 2 1 2 2 2 2
12 9 9 8 6 5 5 6 6 7 8 8 8 8 8 8 8 9 9 8 8 6 6 6 6 6 6 5 3 2 3 3 3 3 4 5 4 6 13 11 11 10 8 3
10 7 7 6 5 5 6 7 7 8 8 9 9 9 9 9 9 9 9 9 9 7 6 6 5 7 6 4 2 3 3 3 3 4 3 3 3 3 5 9 13 13 12 11
6 5 7 6 7 6 7 8 9 9 9 9 10 9 9 9 9 9 9 8 7 7 6 5 7 6 5 4 2 3 3 6 3 3 3 3 2 3 3 4 4 5 12 10
7 5 6 6 6 7 8 10 11 10 10 10 10 10 9 9 9 8 7 7 6 6 6 6 7 7 6 4 3 3 3 3 2 2 2 3 2 2 2 3 3 5 7 10
7 6 7 8 8 10 11 11 11 11 10 11 10 9 8 6 5 6 6 6 7 7 6 7 7 7 5 3 2 2 2 7 4 2 2 2 2 3 3 3 3 3 3 7
9 8 9 9 11 11 11 10 11 11 11 10 10 8 7 5 5 6 6 6 6 5 6 6 6 4 2 2 2 2 2 2 8 2 2 2 2 2 2 2 3 4 5 6
8 6 8 9 10 10 10 10 11 11 10 10 9 9 8 7 7 6 5 5 5 6 8 9 8 7 4 2 2 2 2 2 2 2 2 2 2 2 2 3 3 5 5 7
8 7 8 10 11 11 11 11 11 11 10 10 9 10 9 9 8 8 8 8 10 8 10 11 11 6 3 4 2 2 2 2 2 2 2 6 2 2 3 3 4 3 3 2
8 7 9 10 10 11 11 11 10 10 10 9 10 10 10 11 10 9 10 12 13 13 13 10 8 4 3 4 6 2 2 2 2 2 2 3 3 3 3 6 4 2 2 2
8 8 9 10 11 12 11 11 11 12 12 11 12 12 11 11 12 13 13 13 13 14 13 11 10 7 5 4 2 2 2 2 2 2 2 3 4 4 4 3 3 3 3 5
8 9 10 10 10 10 11 11 12 13 13 13 13 13 13 13 14 13 14 15 14 17 12 12 12 14 9 11 2 2 2 2 2 2 2 2 3 4 4 3 4 5 6 7
8 9 10 10 10 10 10 11 12 13 14 13 14 14 15 15 15 16 16 15 15 16 14 13 15 16 14 5 3 3 2 2 2 2 2 2 3 4 6 7 7 8 9 10
7 9 10 10 10 10 12 11 12 12 13 12 14 13 15 15 15 15 14 15 16 16 16 16 15 15 13 9 9 9 8 7 7 8 8 10 7 8 10 11 12 12 12 13
7 7 9 10 11 11 11 11 12 13 13 13 13 13 13 14 15 16 15 15 17 16 16 16 16 15 12 13 13 12 11 11 10 11 11 12 12 12 12 12 13 13 14 14
8 8 8 9 10 10 10 11 12 13 13 14 15 14 13 14 15 15 16 16 16 17 16 16 16 15 15 15 14 14 13 13 13 13 13 13 14 14 14 14 15 16 16 16
9 9 7 8 9 10 10 11 12 13 13 13 14 14 14 15 15 15 16 16 16 16 16 17 17 17 16 16 16 16 15 16 16 15 16 16 16 17 17 17 17 17 17 17